SCP
0 0 0 0 0 0 0 0 -0 -0 -0 0 0 0 0 0 0 -0 0 0 -0 -0
0 -0 0 0 0 0 0 0 -0 -0 0 0 0 0 -0 0 0 0 -0 -0 -0 -0
0 -0 -0 0 0 0 0 0 0 -0 -0 -0 0 0 -0 -0 0 -0 -0 0 -0 -0
0 0 0 0 0 0 0 0 0 0 -0 -0 -0 0 0 -0 0 -0 -0 0 0 0
0 0 0 0 0 0 0 0 -0 -0 0 -0 0 -0 0 -0 -0 -0 -0 -0 -0 0
1 0 0 0 0 0 0 0 0 0 -0 0 0 -0 -0 -0 -0 -0 -0 -0 -0 -0
1 1 1 1 1 0 0 0 0 0 0 0 0 0 0 0 0 -0 -0 -0 -0 -0
3 1 2 1 1 1 1 0 0 0 0 0 0 0 -0 -0 0 0 0 -0 0 0
2 2 1 1 2 1 1 1 1 1 1 0 0 0 0 0 -0 -0 0 0 0 0
0 0 2 2 2 2 3 2 2 1 1 1 1 0 0 0 0 -0 -0 -0 1 0
0 0 0 0 3 2 3 3 3 2 2 1 1 1 0 0 0 1 0 -0 0 0
0 0 0 0 0 0 2 2 3 2 2 2 2 1 0 0 0 0 1 1 1 0
0 0 0 0 0 0 0 1 1 2 2 1 1 1 1 0 1 1 1 1 1 0
0 0 0 0 0 0 0 0 0 0 1 1 1 1 1 0 2 1 1 1 1 1
Wind_Speed_500mb
30 22 21 20 21 17 16 16 20 12 19 21 15 15 18 14 16 15 13 11 11 4
34 32 25 23 20 13 22 16 15 15 20 19 18 20 21 18 20 12 20 14 16 18
35 34 39 29 28 29 22 26 31 17 17 21 20 19 22 18 18 21 17 16 18 19
35 35 33 34 30 29 32 23 18 16 22 20 19 20 22 28 17 19 19 24 17 22
35 40 36 35 34 30 31 34 28 27 26 27 24 23 23 24 22 21 21 19 21 21
36 36 40 37 35 34 31 33 33 33 34 33 30 29 29 29 27 26 25 24 23 23
34 35 34 39 36 34 36 34 35 41 40 37 36 36 34 35 34 32 29 28 27 28
23 28 30 34 36 40 40 38 38 37 41 41 40 39 38 37 40 39 35 33 32 33
22 17 24 25 34 32 39 43 43 41 42 43 42 45 49 46 41 44 43 41 39 38
23 20 19 25 27 34 38 41 47 47 47 48 51 49 54 58 59 51 48 49 48 42
14 24 28 29 22 31 37 39 44 49 52 51 54 56 57 60 66 65 67 60 49 52
19 12 17 23 29 26 31 43 43 47 52 56 57 57 60 61 65 65 73 75 74 72
26 24 19 20 27 32 34 37 45 42 44 49 58 59 59 63 61 60 63 65 74 80
23 27 28 26 25 27 29 38 39 43 50 53 50 59 59 61 62 62 59 62 64 66
Wind_Direction_500mb
217 213 209 216 210 226 222 189 209 238 198 186 205 195 218 217 213 228 222 237 231 213
221 208 213 217 229 224 224 186 218 203 203 195 203 201 225 200 216 217 234 239 240 222
214 219 207 214 213 216 221 238 218 179 203 207 208 208 202 214 240 224 217 237 242 239
213 214 215 214 218 219 211 223 227 214 207 217 220 218 218 194 228 217 222 222 236 248
215 207 217 214 216 215 217 220 220 222 220 217 224 233 236 224 222 226 225 229 235 246
215 219 211 218 215 217 219 220 224 224 223 227 223 230 236 237 233 233 243 237 241 248
213 218 218 219 218 224 222 224 225 225 230 228 226 235 231 236 241 240 241 248 252 250
217 224 218 217 220 221 229 232 233 232 231 233 233 232 240 233 237 243 246 247 252 256
209 214 223 226 219 227 226 226 234 235 234 235 236 239 237 237 240 242 245 249 251 254
243 203 214 224 226 229 225 226 231 236 238 239 245 238 236 242 242 239 246 251 250 249
246 242 235 226 235 243 234 234 234 235 238 241 245 245 243 241 245 247 247 240 249 255
356 299 256 240 238 239 252 246 241 242 243 244 244 244 248 248 246 249 253 254 249 245
343 343 329 289 263 256 261 258 248 245 249 251 251 248 248 250 245 246 250 256 260 255
318 318 325 324 318 285 264 262 261 264 261 254 256 254 250 251 252 245 249 253 254 259
Wind_Speed_850mb
30 22 21 20 21 17 16 16 20 12 19 21 15 15 18 14 16 15 13 11 11 4
34 32 25 23 20 13 22 16 15 15 20 19 18 20 21 18 20 12 20 14 16 18
35 34 39 29 28 29 22 26 31 17 17 21 20 19 22 18 18 21 17 16 18 19
35 35 33 34 30 29 32 23 18 16 22 20 19 20 22 28 17 19 19 24 17 22
35 40 36 35 34 30 31 34 28 27 26 27 24 23 23 24 22 21 21 19 21 21
36 36 40 37 35 34 31 33 33 33 34 33 30 29 29 29 27 26 25 24 23 23
34 35 34 39 36 34 36 34 35 41 40 37 36 36 34 35 34 32 29 28 27 28
23 28 30 34 36 40 40 38 38 37 41 41 40 39 38 37 40 39 35 33 32 33
22 17 24 25 34 32 39 43 43 41 42 43 42 45 49 46 41 44 43 41 39 38
23 20 19 25 27 34 38 41 47 47 47 48 51 49 54 58 59 51 48 49 48 42
14 24 28 29 22 31 37 39 44 49 52 51 54 56 57 60 66 65 67 60 49 52
19 12 17 23 29 26 31 43 43 47 52 56 57 57 60 61 65 65 73 75 74 72
26 24 19 20 27 32 34 37 45 42 44 49 58 59 59 63 61 60 63 65 74 80
23 27 28 26 25 27 29 38 39 43 50 53 50 59 59 61 62 62 59 62 64 66
Wind_Direction_850mb
217 213 209 216 210 226 222 189 209 238 198 186 205 195 218 217 213 228 222 237 231 213
221 208 213 217 229 224 224 186 218 203 203 195 203 201 225 200 216 217 234 239 240 222
214 219 207 214 213 216 221 238 218 179 203 207 208 208 202 214 240 224 217 237 242 239
213 214 215 214 218 219 211 223 227 214 207 217 220 218 218 194 228 217 222 222 236 248
215 207 217 214 216 215 217 220 220 222 220 217 224 233 236 224 222 226 225 229 235 246
215 219 211 218 215 217 219 220 224 224 223 227 223 230 236 237 233 233 243 237 241 248
213 218 218 219 218 224 222 224 225 225 230 228 226 235 231 236 241 240 241 248 252 250
217 224 218 217 220 221 229 232 233 232 231 233 233 232 240 233 237 243 246 247 252 256
209 214 223 226 219 227 226 226 234 235 234 235 236 239 237 237 240 242 245 249 251 254
243 203 214 224 226 229 225 226 231 236 238 239 245 238 236 242 242 239 246 251 250 249
246 242 235 226 235 243 234 234 234 235 238 241 245 245 243 241 245 247 247 240 249 255
356 299 256 240 238 239 252 246 241 242 243 244 244 244 248 248 246 249 253 254 249 245
343 343 329 289 263 256 261 258 248 245 249 251 251 248 248 250 245 246 250 256 260 255
318 318 325 324 318 285 264 262 261 264 261 254 256 254 250 251 252 245 249 253 254 259